Date String (YYYY-MM-DD hh:mm:ss) UTC,Instrument flags,Ambient pressure (hPa),Sample flow (lpm),Bypass flow (lpm),Sample temperature (°C),Ambient temperature (°C),ASC tube jacket temperature (°C),LED temperature (°C),Box temperature (°C),Sample RH (%),Span deviation,Mass concentration (μg/m³),Mass concentration (μg/m³),Mass concentration (μg/m³)
DateTimeUTC,F1_M11,P_M11,Q1_M11,Q2_M11,T1_M11,T2_M11,T3_M11,T4_M11,T5_M11,U1_M11,ZSPAN_M11,X2_M11,X0_M11,X1_M11
2023-02-10 14:00:00,,0832.6,4.99,0.00,21.8,22.5,00.0,30.5,23.7,05.8,0000.0,0001.89,0002.91,0001.62
2023-02-10 14:01:00,,0832.6,4.97,0.00,21.9,21.9,00.0,30.6,23.6,05.8,0000.0,0001.90,0002.90,0001.64
2023-02-10 14:02:00,,0832.6,5.02,0.00,21.8,20.8,00.0,30.6,23.2,06.0,0000.0,0001.94,0002.94,0001.67
2023-02-10 14:03:00,,0832.6,4.98,0.00,21.7,20.0,00.0,30.6,23.0,06.1,0000.0,0001.97,0002.97,0001.70
2023-02-10 14:04:00,,0832.6,5.02,0.00,21.5,19.3,00.0,30.6,22.7,06.2,0000.0,0001.98,0002.87,0001.73
2023-02-10 14:05:00,,0832.6,4.98,0.00,21.4,18.7,00.0,30.6,22.4,06.2,0000.0,0001.99,0002.76,0001.75
2023-02-10 14:06:00,,0832.6,4.98,0.00,21.3,19.2,00.0,30.5,22.5,06.3,0000.0,0001.99,0002.66,0001.76
2023-02-10 14:07:00,,0832.7,4.96,0.00,21.4,20.8,00.0,30.4,23.0,06.2,0000.0,0002.01,0002.72,0001.77
2023-02-10 14:08:00,,0832.7,5.02,0.00,21.5,22.0,00.0,30.4,23.3,06.2,0000.0,0002.05,0002.80,0001.77
2023-02-10 14:09:00,,0832.7,5.02,0.00,21.7,22.4,00.0,30.4,23.5,06.1,0000.0,0002.07,0002.83,0001.79
2023-02-10 14:10:00,,0832.7,5.04,0.00,21.6,21.4,00.0,30.5,23.2,06.1,0000.0,0002.07,0002.83,0001.81
2023-02-10 14:11:00,,0832.7,4.95,0.00,21.5,20.5,00.0,30.5,22.9,06.1,0000.0,0002.08,0002.84,0001.81
2023-02-10 14:12:00,,0832.6,4.99,0.00,21.4,19.8,00.0,30.5,22.7,06.2,0000.0,0002.08,0002.80,0001.83
2023-02-10 14:13:00,,0832.6,5.01,0.00,21.3,19.3,00.0,30.5,22.6,06.2,0000.0,0002.08,0002.79,0001.83
2023-02-10 14:14:00,,0832.6,5.00,0.00,21.2,19.0,00.0,30.4,22.4,06.3,0000.0,0002.06,0002.77,0001.83
2023-02-10 14:15:00,,0832.6,4.97,0.00,21.3,20.3,00.0,30.3,22.7,06.3,0000.0,0002.07,0002.75,0001.83
2023-02-10 14:16:00,,0832.7,4.99,0.00,21.4,21.6,00.0,30.3,23.1,06.3,0000.0,0002.07,0002.73,0001.84
2023-02-10 14:17:00,,0832.6,4.97,0.00,21.5,22.2,00.0,30.4,23.4,06.3,0000.0,0002.06,0002.73,0001.85
2023-02-10 14:18:00,,0832.6,5.00,0.00,21.5,21.3,00.0,30.4,23.2,06.3,0000.0,0002.07,0002.75,0001.85
2023-02-10 14:19:00,,0832.6,4.99,0.00,21.5,20.6,00.0,30.4,23.0,06.3,0000.0,0002.07,0002.72,0001.87
2023-02-10 14:20:00,,0832.6,5.01,0.00,21.4,20.0,00.0,30.4,22.9,06.4,0000.0,0002.09,0002.75,0001.88
2023-02-10 14:21:00,,0832.6,4.96,0.00,21.3,19.5,00.0,30.4,22.7,06.4,0000.0,0002.12,0002.90,0001.90
2023-02-10 14:22:00,,0832.6,5.01,0.00,21.3,19.1,00.0,30.4,22.5,06.5,0000.0,0002.15,0003.12,0001.92
2023-02-10 14:23:00,,0832.6,4.98,0.00,21.2,19.6,00.0,30.3,22.6,06.5,0000.0,0002.14,0003.11,0001.93
2023-02-10 14:24:00,,0832.6,5.00,0.00,21.3,21.1,00.0,30.3,23.0,06.4,0000.0,0002.15,0003.11,0001.94
2023-02-10 14:25:00,,0832.6,5.01,0.00,21.5,22.2,00.0,30.3,23.3,06.5,0000.0,0002.17,0003.16,0001.94
2023-02-10 14:26:00,,0832.6,4.99,0.00,21.6,22.1,00.0,30.3,23.4,06.4,0000.0,0002.18,0003.30,0001.94
2023-02-10 14:27:00,,0832.6,5.04,0.00,21.6,21.4,00.0,30.4,23.3,06.4,0000.0,0002.19,0003.35,0001.93
2023-02-10 14:28:00,,0832.6,4.95,0.00,21.5,20.9,00.0,30.4,23.2,06.5,0000.0,0002.19,0003.29,0001.91
2023-02-10 14:29:00,,0832.6,5.01,0.00,21.5,20.5,00.0,30.4,23.0,06.5,0000.0,0002.18,0003.26,0001.91
2023-02-10 14:30:00,,0832.7,4.97,0.00,21.5,20.2,00.0,30.4,23.0,06.6,0000.0,0002.14,0003.16,0001.89
2023-02-10 14:31:00,,0832.7,4.97,0.00,21.4,19.9,00.0,30.4,22.9,06.6,0000.0,0002.17,0003.25,0001.87
2023-02-10 14:32:00,,0832.7,4.99,0.00,21.4,19.7,00.0,30.4,22.8,06.5,0000.0,0002.20,0003.25,0001.86
2023-02-10 14:33:00,,0832.7,4.99,0.00,21.3,19.5,00.0,30.4,22.8,06.5,0000.0,0002.20,0003.12,0001.84
2023-02-10 14:34:00,,0832.7,4.99,0.00,21.3,19.7,00.0,30.3,22.8,06.6,0000.0,0002.19,0003.06,0001.83
2023-02-10 14:35:00,,0832.7,5.01,0.00,21.4,21.4,00.0,30.3,23.2,06.7,0000.0,0002.20,0003.05,0001.82
2023-02-10 14:36:00,,0832.7,4.96,0.00,21.6,22.5,00.0,30.3,23.5,06.7,0000.0,0002.17,0002.99,0001.81
2023-02-10 14:37:00,,0832.7,5.02,0.00,21.7,22.1,00.0,30.4,23.6,06.6,0000.0,0002.15,0002.85,0001.80
2023-02-10 14:38:00,,0832.7,4.98,0.00,21.7,21.5,00.0,30.4,23.5,06.6,0000.0,0002.16,0002.86,0001.80
2023-02-10 14:39:00,,0832.7,5.01,0.00,21.7,21.1,00.0,30.4,23.4,06.7,0000.0,0002.20,0002.94,0001.81
2023-02-10 14:40:00,,0832.6,5.00,0.00,21.7,20.7,00.0,30.5,23.3,06.6,0000.0,0002.20,0003.15,0001.82
2023-02-10 14:41:00,,0832.6,5.00,0.00,21.6,20.4,00.0,30.5,23.3,06.7,0000.0,0002.22,0004.02,0001.82
2023-02-10 14:42:00,,0832.6,4.97,0.00,21.6,20.1,00.0,30.5,23.2,06.7,0000.0,0002.20,0003.96,0001.82
2023-02-10 14:43:00,,0832.6,5.05,0.00,21.6,19.9,00.0,30.5,23.1,06.8,0000.0,0002.15,0003.98,0001.81
2023-02-10 14:44:00,,0832.6,4.96,0.00,21.6,19.8,00.0,30.5,23.1,06.9,0000.0,0002.11,0003.99,0001.80
2023-02-10 14:45:00,,0832.6,4.96,0.00,21.5,20.5,00.0,30.4,23.2,07.1,0000.0,0002.10,0004.03,0001.77
2023-02-10 14:46:00,,0832.6,4.97,0.00,21.7,21.9,00.0,30.4,23.5,07.0,0000.0,0002.08,0004.02,0001.77
2023-02-10 14:47:00,,0832.6,4.99,0.00,21.8,22.5,00.0,30.5,23.7,06.8,0000.0,0002.10,0004.07,0001.78
2023-02-10 14:48:00,,0832.6,4.98,0.00,21.8,22.0,00.0,30.5,23.7,06.8,0000.0,0002.11,0004.71,0001.79
2023-02-10 14:49:00,,0832.6,5.02,0.00,21.8,21.4,00.0,30.6,23.6,06.7,0000.0,0002.09,0004.80,0001.81
2023-02-10 14:50:00,,0832.6,4.98,0.00,21.8,21.0,00.0,30.6,23.5,06.8,0000.0,0002.11,0004.82,0001.84
2023-02-10 14:51:00,,0832.6,5.02,0.00,21.8,20.6,00.0,30.6,23.4,06.8,0000.0,0002.16,0004.79,0001.87
2023-02-10 14:52:00,,0832.6,5.03,0.00,21.7,20.3,00.0,30.6,23.3,06.8,0000.0,0002.21,0004.16,0001.89
2023-02-10 14:53:00,,0832.6,5.00,0.00,21.7,20.1,00.0,30.6,23.2,06.9,0000.0,0002.22,0004.15,0001.92
2023-02-10 14:54:00,,0832.6,5.01,0.00,21.7,19.9,00.0,30.6,23.2,06.9,0000.0,0002.25,0004.02,0001.96
2023-02-10 14:55:00,,0832.6,5.01,0.00,21.6,19.9,00.0,30.6,23.2,06.9,0000.0,0002.28,0003.91,0001.99
2023-02-10 14:56:00,,0832.6,5.03,0.00,21.7,21.1,00.0,30.5,23.4,07.0,0000.0,0002.33,0003.96,0002.04
2023-02-10 14:57:00,,0832.6,5.04,0.00,21.8,22.5,00.0,30.5,23.7,07.0,0000.0,0002.35,0004.04,0002.06
2023-02-10 14:58:00,,0832.7,5.00,0.00,21.9,22.5,00.0,30.6,23.8,07.0,0000.0,0002.38,0004.04,0002.09
2023-02-10 14:59:00,,0832.7,5.02,0.00,21.9,21.8,00.0,30.6,23.7,07.0,0000.0,0002.41,0003.44,0002.11
